Change the Weather History Date:

Thursday, August 30, 2012

  Actual Average Record
Temperature  
Mean Temperature 66 °F -  
Max Temperature 75 °F 71 °F 85 °F (1996)
Min Temperature 59 °F 57 °F 48 °F (2010)
Cooling Degree Days 1    
Growing Degree Days 16 (Base 50)    
Moisture  
Dew Point 61 °F    
Average Humidity 83    
Maximum Humidity 97    
Minimum Humidity 64    
Precipitation  
Precipitation 0.00 in - - ()
Sea Level Pressure  
Sea Level Pressure 29.81 in    
Wind  
Wind Speed 4 mph (WNW)    
Max Wind Speed 13 mph    
Max Gust Speed -    
Visibility 8 miles    
Events      
Averages and records for this station are not official NWS values.
T = Trace of Precipitation, MM = Missing Value Source: NWS Daily Summary

Daily Weather History Graph

Daily Weather History Graph

Search for Another Location

Airport or City:

Trip Planner

Search our weather history database for the weather conditions in past years. The results will help you decide how hot, cold, wet, or windy it might be!

Date:

Astronomy

Aug. 30, 2012 Rise Set
Actual Time 6:28 AM PDT 7:24 PM PDT
Civil Twilight 6:03 AM PDT 7:49 PM PDT
Nautical Twilight 5:33 AM PDT 8:20 PM PDT
Astronomical Twilight 5:01 AM PDT 8:51 PM PDT
Moon 6:43 PM PDT (8/30) 5:35 AM PDT (8/30)
Length of Visible Light 13h 46m
Length of Day
12h 55m
Waxing Gibbous, 99% of the Moon is Illuminated
Aug 30
Waxing Gibbous
Aug 31
Full
Sep 8
Last Quarter
Sep 15
New
Sep 22
First Quarter

Hourly Weather History & Observations

Time (PDT) Temp. Dew Point Humidity Pressure Visibility Wind Dir Wind Speed Gust Speed Precip Events Conditions
12:54 AM 63.0 °F 61.0 °F 93% 29.81 in 10.0 mi Calm Calm - N/A   Clear
1:54 AM 62.1 °F 61.0 °F 96% 29.81 in 10.0 mi Calm Calm - N/A   Clear
2:54 AM 62.1 °F 61.0 °F 96% 29.79 in 10.0 mi NE 4.6 mph - N/A   Clear
3:54 AM 59.0 °F 57.9 °F 96% 29.78 in 10.0 mi NW 3.5 mph - N/A   Clear
4:54 AM 61.0 °F 60.1 °F 97% 29.78 in 10.0 mi Calm Calm - N/A   Clear
5:54 AM 61.0 °F 60.1 °F 97% 29.79 in 1.0 mi Calm Calm - N/A   Clear
6:54 AM 61.0 °F 60.1 °F 97% 29.80 in 7.0 mi Calm Calm - N/A   Clear
7:54 AM 66.9 °F 64.9 °F 93% 29.82 in 7.0 mi Calm Calm - N/A   Partly Cloudy
8:54 AM 70.0 °F 64.0 °F 81% 29.83 in 7.0 mi Variable 3.5 mph - N/A   Partly Cloudy
9:54 AM 73.0 °F 64.0 °F 73% 29.83 in 7.0 mi Variable 3.5 mph - N/A   Clear
10:54 AM 73.0 °F 63.0 °F 71% 29.85 in 7.0 mi West 9.2 mph - N/A   Clear
11:54 AM 73.9 °F 63.0 °F 68% 29.85 in 7.0 mi West 9.2 mph - N/A   Partly Cloudy
12:54 PM 73.9 °F 63.0 °F 68% 29.84 in 7.0 mi West 12.7 mph - N/A   Partly Cloudy
1:54 PM 73.9 °F 62.1 °F 66% 29.81 in 7.0 mi West 11.5 mph - N/A   Partly Cloudy
2:54 PM 73.9 °F 61.0 °F 64% 29.81 in 7.0 mi West 10.4 mph - N/A   Partly Cloudy
3:54 PM 73.9 °F 61.0 °F 64% 29.80 in 7.0 mi West 9.2 mph - N/A   Partly Cloudy
4:54 PM 72.0 °F 61.0 °F 68% 29.80 in 7.0 mi West 8.1 mph - N/A   Scattered Clouds
5:54 PM 69.1 °F 60.1 °F 73% 29.82 in 7.0 mi Variable 5.8 mph - N/A   Scattered Clouds
6:54 PM 66.9 °F 61.0 °F 81% 29.81 in 7.0 mi WNW 8.1 mph - N/A   Scattered Clouds
7:54 PM 66.0 °F 60.1 °F 81% 29.81 in 7.0 mi NW 3.5 mph - N/A   Scattered Clouds
8:54 PM 64.0 °F 60.1 °F 87% 29.82 in 7.0 mi WNW 6.9 mph - N/A   Scattered Clouds
9:54 PM 64.0 °F 60.1 °F 87% 29.83 in 7.0 mi NW 4.6 mph - N/A   Scattered Clouds
10:54 PM 63.0 °F 60.1 °F 90% 29.83 in 10.0 mi NW 5.8 mph - N/A   Clear
11:54 PM 62.1 °F 60.1 °F 93% 29.83 in 10.0 mi NW 3.5 mph - N/A   Clear